Hillsdale, MI

11:12 AM EST on November 12, 2019 (GMT -0500)
Hillsdale Municipal

Weather History for KJYM - September, 2019

Change the Weather History Date:

Saturday, September 28, 2019

  Actual Average Record
Temperature  
Mean Temperature 62 °F -  
Max Temperature 69 °F 68 °F 84 °F (1954)
Min Temperature 55 °F 43 °F 26 °F (1991)
Degree Days  
Heating Degree Days 3    
Growing Degree Days 12 (Base 50)    
Moisture  
Dew Point 61 °F    
Average Humidity 93    
Maximum Humidity 97    
Minimum Humidity 86    
Precipitation  
Precipitation 1.11 in - - ()
Sea Level Pressure  
Sea Level Pressure 30.06 in    
Wind  
Wind Speed 6 mph ()    
Max Wind Speed 16 mph    
Max Gust Speed 21 mph    
Visibility 9.2 miles    
Events Rain    
Averages and records for this station are not official NWS values.
T = Trace of Precipitation, MM = Missing Value Source: Averaged Metar Reports

Daily Weather History Graph

Daily Weather History Graph

Search for Another Location

Airport or City:

Astronomy

Sep. 28, 2019 Rise Set
Actual Time 7:31 AM EDT 7:25 PM EDT
Civil Twilight 7:04 AM EDT 7:53 PM EDT
Nautical Twilight 6:31 AM EDT 8:25 PM EDT
Astronomical Twilight 5:58 AM EDT 8:58 PM EDT
Moon 7:05 AM EDT (9/28) 7:51 PM EDT (9/28)
Length of Visible Light 12h 49m
Length of Day
11h 53m
Waning Crescent, 0% of the Moon is Illuminated
Sep 28
Waning Crescent
Sep 28
New
Oct 5
First Quarter
Oct 13
Full
Oct 21
Last Quarter

Hourly Weather History & Observations

Time (EDT) Temp. Dew Point Humidity Pressure Visibility Wind Dir Wind Speed Gust Speed Precip Events Conditions
12:19 AM 63.5 °F 61.9 °F 94% 29.91 in 3.0 mi SW 10.4 mph 19.6 mph 0.36 in Rain Heavy Rain
12:36 AM 63.5 °F 61.7 °F 94% 29.90 in 5.0 mi SW 6.9 mph - 0.43 in Rain Heavy Rain
12:55 AM 63.1 °F 61.7 °F 95% 29.90 in 7.0 mi SSW 5.8 mph - 0.48 in Rain Rain
1:15 AM 63.0 °F 61.7 °F 96% 29.91 in 7.0 mi South 5.8 mph - 0.04 in Rain Rain
1:39 AM 63.1 °F 61.9 °F 96% 29.92 in 7.0 mi SSW 4.6 mph - 0.09 in Rain Rain
1:57 AM 63.5 °F 62.1 °F 95% 29.92 in 7.0 mi SW 4.6 mph - 0.14 in Rain Rain
2:16 AM 63.5 °F 62.2 °F 96% 29.93 in 7.0 mi SSW 6.9 mph - 0.06 in Rain Rain
2:35 AM 63.5 °F 62.2 °F 96% 29.92 in 5.0 mi South 6.9 mph - 0.15 in Rain Heavy Rain
2:55 AM 63.3 °F 61.9 °F 95% 29.87 in 10.0 mi SSE 11.5 mph - 0.20 in Rain Rain
3:00 AM 63.1 °F 62.1 °F 96% 29.86 in 10.0 mi SSE 11.5 mph - N/A Rain Light Rain
3:18 AM 63.0 °F 61.9 °F 96% 29.85 in 10.0 mi SSE 16.1 mph 20.7 mph 0.02 in Rain Rain
3:36 AM 63.0 °F 61.9 °F 96% 29.86 in 10.0 mi South 11.5 mph - 0.03 in Rain Light Rain
3:55 AM 63.0 °F 61.9 °F 96% 29.91 in 10.0 mi WNW 11.5 mph - 0.03 in   Overcast
4:15 AM 63.1 °F 62.1 °F 96% 29.93 in 10.0 mi WSW 6.9 mph - 0.02 in Rain Rain
4:16 AM 63.1 °F 62.1 °F 96% 29.93 in 7.0 mi WSW 6.9 mph - 0.02 in Rain Rain
4:39 AM 63.1 °F 61.9 °F 96% 29.93 in 7.0 mi WSW 3.5 mph - 0.10 in Rain Rain
4:57 AM 63.1 °F 61.9 °F 96% 29.93 in 7.0 mi SW 4.6 mph - 0.15 in Rain Rain
5:15 AM 63.1 °F 61.7 °F 95% 29.90 in 7.0 mi South 5.8 mph - 0.07 in Rain Heavy Rain
5:35 AM 63.0 °F 61.7 °F 96% 29.89 in 10.0 mi Calm Calm - 0.09 in Rain Light Rain
5:36 AM 63.0 °F 61.7 °F 96% 29.89 in 10.0 mi Calm Calm - 0.09 in Rain Light Rain
5:55 AM 62.4 °F 61.0 °F 95% 29.86 in 10.0 mi East 3.5 mph - 0.09 in Rain Light Rain
6:00 AM 62.2 °F 61.0 °F 96% 29.86 in 10.0 mi ESE 4.6 mph - N/A Rain Light Rain
6:18 AM 62.2 °F 61.2 °F 96% 29.86 in 10.0 mi SSE 4.6 mph - N/A   Mostly Cloudy
6:36 AM 62.6 °F 61.7 °F 97% 29.91 in 10.0 mi South 6.9 mph - N/A   Mostly Cloudy
6:55 AM 62.8 °F 61.7 °F 96% 29.94 in 10.0 mi SSW 4.6 mph - N/A   Overcast
6:56 AM 62.8 °F 61.7 °F 96% 29.94 in 10.0 mi SSW 6.9 mph - N/A   Overcast
7:15 AM 63.1 °F 62.1 °F 96% 29.98 in 10.0 mi WSW 4.6 mph - N/A   Overcast
7:16 AM 63.1 °F 62.1 °F 96% 29.98 in 10.0 mi WSW 4.6 mph - N/A   Overcast
7:39 AM 63.5 °F 62.1 °F 95% 29.99 in 10.0 mi SSW 6.9 mph - N/A   Overcast
7:57 AM 63.5 °F 62.2 °F 96% 30.01 in 10.0 mi WSW 8.1 mph - N/A   Overcast
8:15 AM 63.9 °F 62.6 °F 96% 30.01 in 10.0 mi WSW 6.9 mph - N/A   Overcast
8:16 AM 63.9 °F 62.6 °F 96% 30.01 in 10.0 mi WSW 5.8 mph - N/A   Overcast
8:35 AM 64.4 °F 62.6 °F 94% 30.02 in 10.0 mi SW 6.9 mph - N/A   Overcast
8:36 AM 64.4 °F 62.6 °F 94% 30.02 in 10.0 mi SW 6.9 mph - N/A   Overcast
8:55 AM 64.4 °F 62.6 °F 94% 30.02 in 10.0 mi SW 9.2 mph - N/A   Overcast
9:18 AM 64.8 °F 62.6 °F 93% 30.02 in 10.0 mi WSW 8.1 mph - N/A   Drizzle
9:36 AM 64.6 °F 62.8 °F 94% 30.01 in 10.0 mi WSW 6.9 mph - 0.01 in Rain Light Rain
9:55 AM 64.6 °F 62.8 °F 94% 29.99 in 10.0 mi WNW 6.9 mph - 0.02 in Rain Light Rain
9:56 AM 64.6 °F 63.0 °F 94% 29.98 in 10.0 mi WNW 5.8 mph - 0.02 in Rain Light Rain
10:15 AM 65.1 °F 63.3 °F 94% 29.98 in 10.0 mi WNW 3.5 mph - N/A   Overcast
10:39 AM 66.4 °F 64.2 °F 93% 30.01 in 10.0 mi SSW 3.5 mph - N/A   Mostly Cloudy
10:57 AM 65.8 °F 63.7 °F 93% 30.03 in 10.0 mi SW 4.6 mph - N/A   Overcast
11:15 AM 66.6 °F 64.4 °F 93% 30.03 in 10.0 mi West 3.5 mph - N/A Rain Light Rain
11:16 AM 66.7 °F 64.6 °F 93% 30.03 in 10.0 mi West 3.5 mph - N/A Rain Light Rain
11:35 AM 67.5 °F 64.4 °F 90% 30.04 in 10.0 mi SW 5.8 mph - N/A   Mostly Cloudy
11:36 AM 67.5 °F 64.4 °F 90% 30.04 in 10.0 mi SW 6.9 mph - N/A   Mostly Cloudy
11:55 AM 67.1 °F 64.4 °F 91% 30.05 in 10.0 mi WSW 4.6 mph - N/A   Overcast
12:18 PM 67.5 °F 64.6 °F 90% 30.05 in 10.0 mi West 4.6 mph - N/A   Overcast
12:36 PM 68.0 °F 64.9 °F 90% 30.06 in 10.0 mi West 4.6 mph - N/A   Overcast
12:55 PM 68.5 °F 65.1 °F 89% 30.06 in 7.0 mi WSW 3.5 mph - N/A   Overcast
12:56 PM 68.7 °F 65.1 °F 88% 30.06 in 7.0 mi WSW 3.5 mph - N/A   Overcast
1:15 PM 68.9 °F 64.6 °F 86% 30.07 in 10.0 mi West 3.5 mph - N/A   Overcast
1:16 PM 69.1 °F 64.8 °F 86% 30.07 in 10.0 mi West 4.6 mph - N/A   Overcast
1:39 PM 65.7 °F 63.9 °F 94% 30.09 in 7.0 mi North 4.6 mph - N/A Rain Rain
1:57 PM 65.3 °F 63.5 °F 94% 30.10 in 10.0 mi NNW 5.8 mph - N/A   Overcast
2:15 PM 65.3 °F 63.3 °F 93% 30.09 in 10.0 mi North 4.6 mph - N/A   Overcast
2:35 PM 64.9 °F 62.8 °F 93% 30.10 in 10.0 mi North 5.8 mph - N/A   Overcast
2:36 PM 64.9 °F 62.8 °F 93% 30.10 in 10.0 mi North 6.9 mph - N/A   Overcast
2:55 PM 64.9 °F 62.4 °F 92% 30.11 in 10.0 mi NNW 5.8 mph - N/A   Overcast
3:00 PM 65.3 °F 62.6 °F 91% 30.11 in 10.0 mi NNW 5.8 mph - N/A   Overcast
3:18 PM 64.4 °F 61.9 °F 92% 30.13 in 10.0 mi North 6.9 mph - N/A   Overcast
3:36 PM 63.9 °F 61.3 °F 91% 30.13 in 10.0 mi North 6.9 mph - N/A   Overcast
3:55 PM 63.9 °F 61.3 °F 91% 30.13 in 10.0 mi North 4.6 mph - N/A   Overcast
3:56 PM 63.9 °F 61.3 °F 91% 30.13 in 10.0 mi North 6.9 mph - N/A   Overcast
4:16 PM 62.6 °F 60.3 °F 92% 30.15 in 10.0 mi North 6.9 mph - N/A   Overcast
4:39 PM 61.5 °F 59.2 °F 92% 30.16 in 10.0 mi North 4.6 mph - N/A   Overcast
4:57 PM 62.1 °F 59.0 °F 90% 30.16 in 10.0 mi North 6.9 mph - N/A   Overcast
5:15 PM 62.6 °F 59.2 °F 89% 30.16 in 10.0 mi North 6.9 mph - N/A   Overcast
5:16 PM 62.6 °F 59.2 °F 89% 30.16 in 10.0 mi North 8.1 mph - N/A   Overcast
5:35 PM 62.1 °F 59.0 °F 90% 30.17 in 10.0 mi North 6.9 mph - N/A   Overcast
5:55 PM 62.1 °F 58.8 °F 89% 30.17 in 10.0 mi North 5.8 mph - N/A   Overcast
6:18 PM 62.1 °F 58.3 °F 87% 30.17 in 10.0 mi North 8.1 mph - N/A   Overcast
6:35 PM 62.1 °F 58.1 °F 87% 30.18 in 10.0 mi Calm Calm - N/A   Overcast
6:55 PM 61.5 °F 57.7 °F 87% 30.18 in 10.0 mi NNE 6.9 mph - N/A   Overcast
6:56 PM 61.5 °F 57.7 °F 87% 30.18 in 10.0 mi NNE 6.9 mph - N/A   Overcast
7:15 PM 61.2 °F 57.6 °F 88% 30.18 in 10.0 mi NNE 4.6 mph - N/A   Overcast
7:39 PM 60.1 °F 57.2 °F 90% 30.18 in 10.0 mi NNE 6.9 mph - N/A   Scattered Clouds
7:57 PM 59.7 °F 57.2 °F 91% 30.19 in 10.0 mi NNE 3.5 mph - N/A   Clear
8:15 PM 59.4 °F 56.8 °F 91% 30.19 in 10.0 mi North 4.6 mph - N/A   Clear
8:16 PM 59.4 °F 56.8 °F 91% 30.19 in 10.0 mi North 4.6 mph - N/A   Clear
8:35 PM 59.4 °F 56.8 °F 91% 30.19 in 10.0 mi NE 4.6 mph - N/A   Clear
8:55 PM 59.0 °F 56.7 °F 92% 30.20 in 10.0 mi ENE 4.6 mph - N/A   Clear
9:18 PM 58.3 °F 56.3 °F 93% 30.20 in 10.0 mi ENE 4.6 mph - N/A   Clear
9:36 PM 57.6 °F 55.6 °F 93% 30.21 in 10.0 mi Calm Calm - N/A   Clear
9:55 PM 57.0 °F 55.4 °F 94% 30.22 in 10.0 mi Calm Calm - N/A   Clear
9:56 PM 57.0 °F 55.4 °F 94% 30.22 in 10.0 mi Calm Calm - N/A   Clear
10:15 PM 57.0 °F 55.6 °F 95% 30.23 in 10.0 mi Calm Calm - N/A   Clear
10:39 PM 56.1 °F 55.2 °F 97% 30.25 in 7.0 mi Calm Calm - N/A   Mostly Cloudy
10:57 PM 55.6 °F 54.5 °F 96% 30.25 in 10.0 mi ENE 3.5 mph - N/A   Mostly Cloudy
11:15 PM 55.8 °F 54.9 °F 97% 30.25 in 5.0 mi NE 3.5 mph - N/A   Scattered Clouds
11:16 PM 55.9 °F 55.0 °F 97% 30.25 in 7.0 mi NE 3.5 mph - N/A   Scattered Clouds
11:35 PM 55.6 °F 54.5 °F 96% 30.27 in 7.0 mi Calm Calm - N/A   Clear
11:36 PM 55.6 °F 54.7 °F 97% 30.27 in 7.0 mi ENE 3.5 mph - N/A   Clear
11:55 PM 55.0 °F 54.1 °F 97% 30.27 in 7.0 mi ENE 3.5 mph - N/A   Scattered Clouds